Medford, OR

6:47 AM PDT on April 20, 2018 (GMT -0700)
Rogue Valley International-Medford

Weather History for KMFR - November, 2013

Change the Weather History Date:

Thursday, November 14, 2013

  Actual Average Record
Temperature  
Mean Temperature 47 °F 45 °F  
Max Temperature 52 °F 53 °F 68 °F (1934)
Min Temperature 41 °F 37 °F 11 °F (1978)
Degree Days  
Heating Degree Days 18 20  
Month to date heating degree days 235 251  
Since 1 July heating degree days 677 611  
Cooling Degree Days 0 0  
Month to date cooling degree days 0 0  
Year to date cooling degree days 1057 829  
Moisture  
Dew Point 41 °F    
Average Humidity 79    
Maximum Humidity 92    
Minimum Humidity 66    
Precipitation  
Precipitation 0.00 in 0.10 in 1.43 in (1963)
Month to date precipitation 0.37 1.23  
Year to date precipitation 7.88 13.07  
Snow  
Snow 0.00 in 0.00 in - ()
Month to date snowfall 0.0 0.0  
Since 1 July snowfall 0.0 0.0  
Snow Depth 0.00 in    
Sea Level Pressure  
Sea Level Pressure 30.16 in    
Wind  
Wind Speed 3 mph (NNE)    
Max Wind Speed 8 mph    
Max Gust Speed 10 mph    
Visibility 9 miles    
Events      
T = Trace of Precipitation, MM = Missing Value Source: NWS Daily Summary

Daily Weather History Graph

Daily Weather History Graph

Search for Another Location

Airport or City:

Astronomy

Nov. 14, 2013 Rise Set
Actual Time 7:01 AM PST 4:50 PM PST
Civil Twilight 6:31 AM PST 5:20 PM PST
Nautical Twilight 5:57 AM PST 5:54 PM PST
Astronomical Twilight 5:24 AM PST 6:27 PM PST
Moon 3:17 PM PST (11/14) 3:59 AM PST (11/14)
Length of Visible Light 10h 48m
Length of Day
9h 48m
Waxing Gibbous, 92% of the Moon is Illuminated
Nov 14
Waxing Gibbous
Nov 17
Full
Nov 25
Last Quarter
Dec 2
New
Dec 9
First Quarter

Hourly Weather History & Observations

Time (PST) Temp. Windchill Dew Point Humidity Pressure Visibility Wind Dir Wind Speed Gust Speed Precip Events Conditions
12:03 AM 44.1 °F - 43.0 °F 96% 30.23 in 7.0 mi Calm Calm - N/A   Overcast
12:27 AM 44.1 °F 42.5 °F 43.0 °F 96% 30.23 in 7.0 mi SSW 3.5 mph - N/A   Overcast
12:53 AM 45.0 °F - 43.0 °F 93% 30.22 in 7.0 mi Calm Calm - N/A   Overcast
1:53 AM 46.0 °F - 43.0 °F 89% 30.22 in 9.0 mi Calm Calm - N/A   Overcast
2:53 AM 46.0 °F - 43.0 °F 89% 30.20 in 10.0 mi Calm Calm - N/A   Overcast
3:53 AM 45.0 °F 42.6 °F 41.0 °F 86% 30.21 in 10.0 mi NNE 4.6 mph - N/A   Overcast
4:04 AM 45.0 °F 42.6 °F 41.0 °F 86% 30.20 in 10.0 mi NE 4.6 mph - N/A   Overcast
4:53 AM 45.0 °F - 39.9 °F 82% 30.21 in 10.0 mi Calm Calm - N/A   Overcast
5:53 AM 45.0 °F - 41.0 °F 86% 30.20 in 10.0 mi Calm Calm - N/A   Overcast
6:06 AM 46.0 °F - 42.1 °F 86% 30.20 in 10.0 mi Calm Calm - N/A   Overcast
6:15 AM 46.0 °F - 42.1 °F 86% 30.20 in 9.0 mi Calm Calm - N/A   Overcast
6:53 AM 45.0 °F 42.6 °F 42.1 °F 90% 30.20 in 10.0 mi North 4.6 mph - N/A   Overcast
7:53 AM 45.0 °F 42.6 °F 41.0 °F 86% 30.22 in 5.0 mi NNE 4.6 mph - N/A   Overcast
8:53 AM 44.1 °F - 42.1 °F 93% 30.22 in 3.0 mi Calm Calm - N/A   Overcast
9:53 AM 45.0 °F 43.5 °F 43.0 °F 93% 30.22 in 3.0 mi NNW 3.5 mph - N/A   Overcast
10:53 AM 46.9 °F - 43.0 °F 86% 30.21 in 3.0 mi Calm Calm - N/A   Overcast
11:53 AM 48.9 °F - 44.1 °F 83% 30.17 in 5.0 mi ENE 3.5 mph - N/A   Haze
12:53 PM 51.1 °F - 43.0 °F 74% 30.18 in 10.0 mi NNE 3.5 mph - N/A   Overcast
1:53 PM 51.1 °F - 43.0 °F 74% 30.14 in 10.0 mi ESE 3.5 mph - N/A   Overcast
2:53 PM 51.1 °F - 43.0 °F 74% 30.12 in 10.0 mi North 6.9 mph - N/A   Mostly Cloudy
3:51 PM 51.8 °F - 42.8 °F 71% 30.10 in 10.0 mi NNE 6.9 mph - N/A   Mostly Cloudy
3:53 PM 51.1 °F - 42.1 °F 71% 30.11 in 10.0 mi NNE 6.9 mph - N/A   Mostly Cloudy
4:53 PM 50.0 °F - 42.1 °F 74% 30.11 in 10.0 mi North 5.8 mph - N/A   Overcast
5:00 PM 50.0 °F - 42.1 °F 74% 30.10 in 10.0 mi NNW 4.6 mph - N/A   Overcast
5:53 PM 50.0 °F - 39.0 °F 66% 30.11 in 10.0 mi West 6.9 mph - N/A   Overcast
6:53 PM 48.0 °F - 39.0 °F 71% 30.09 in 10.0 mi NNE 6.9 mph - N/A   Mostly Cloudy
7:53 PM 46.0 °F 43.9 °F 39.0 °F 76% 30.08 in 10.0 mi North 4.6 mph - N/A   Mostly Cloudy
8:53 PM 44.1 °F - 37.0 °F 76% 30.09 in 10.0 mi Calm Calm - N/A   Scattered Clouds
9:53 PM 43.0 °F 41.3 °F 37.9 °F 82% 30.10 in 10.0 mi SSE 3.5 mph - N/A   Mostly Cloudy
10:53 PM 42.1 °F 40.2 °F 37.0 °F 82% 30.10 in 10.0 mi SSW 3.5 mph - N/A   Overcast
11:53 PM 41.0 °F - 36.0 °F 82% 30.10 in 10.0 mi Calm Calm - N/A   Clear